Voltar ao catálogo

KUIPER-00438

AtivoComunicaçõesLEO
NORAD 68940·PAYLOAD·🇺🇸 United States

Lançado Apr 30, 2026 de Guiana Space Centre

Loading…

Próximas Passagens (próximas 24 horas)

TLE

AtualizadoSource: CelesTrak SupGP

Época: Sep 14, 2026, 22:26 UTC

1 68940C 26098X   26257.93526620  .00004671  00000+0  61164-3 0  2572
2 68940  51.9037  18.8181 0000607  89.7066 260.3021 14.79914704    11

Acompanhe KUIPER-00438 em tempo real com AllMySat

Download on the App Store